Starlink 30706

operational
NORAD ID: 57947 Int'l Des: 2023-148 Owner: SPXS Country: US Constellation: starlink
LEOCIRCULAR

About Starlink 30706

Description loading...

Live Position

Loading 3D Globe...

Upcoming Passes

Altitude History

Altitude vs Time

uPlot chart will show altitude changes over time

Two-Line Element Set

1 57947U 23148N 25304.12820684 .00000484 00000-0 28474-4 0 9990
2 57947 53.1616 266.2351 0001172 85.1274 274.9861 15.30196553118587
Epoch: Oct 31, 2025 • Age: 17 hours

Current Status

Altitude 489.4 km
Velocity 7.62 km/s
Sub-Earth Point -40.71°S, 145.94°E
Launch Date Sep 25, 2023
Age 2 years
Type internet

Technical Details

Classification Payload
Mass 730.00 kg
Dry Mass 700.00 kg
Total Mass 730.00 kg
Length 0.30 m
Diameter 4.10 m
Span 29.00 m
Shape Box + pan
Manufacturer SPXS
Bus Type Starlink V2M
Phase Status In Orbit
Owner/State SPXS/US

Large Constellations

Loading constellations...